[[{"header":{"parameterUnit":"m.s-1","parameterCategory":1,"la1":30.2991,"la2":30.254,"lo1":-89.0895,"lo2":-89.0444,"dy":0.0017,"dx":0.0017,"nx":28,"ny":28,"refTime":"2025-06-21T21:00:00:Z","depth":0,"parameterNumber":2,"parameterNumberName":"U-component_of_WINDS"},"data":[0,0,0,0,0,0,0,0,0,0,0,0,0,0,0,0,0,0,0,0,0,0,0,0,0,0,0,0,0,0,0,0,0,0,0,0,0,0,0,0,0,0,0,0,0,0,0,0,0,0,0,0,0,0,0,0,0,0,-2.645,-2.6452,0,-2.6556,-2.6557,-2.6558,-2.6548,-2.6547,-2.6545,-2.6544,-2.6653,-2.6657,-2.6662,0,0,0,0,0,0,0,0,0,0,0,0,0,-2.6243,-2.6247,-2.645,-2.6452,-2.6453,-2.6555,-2.6557,-2.6558,-2.6549,-2.6547,-2.6545,-2.6543,-2.6651,-2.6657,-2.6662,0,0,0,0,0,0,0,0,0,0,0,0,0,-2.6339,-2.6248,-2.645,-2.646,-2.6462,-2.6555,-2.6557,-2.6559,-2.6549,-2.6547,-2.6544,-2.6542,-2.665,-2.6656,-2.6663,-2.6752,0,0,-2.6683,-2.6686,0,0,0,0,0,0,0,0,-2.6334,-2.6347,-2.6458,-2.646,-2.6462,-2.6536,-2.6524,-2.6624,-2.655,-2.6516,-2.6544,-2.6541,-2.6616,-2.6625,-2.6651,-2.6757,-2.6762,-2.6683,-2.6688,-2.669,-2.6692,0,0,0,0,0,0,0,-2.6327,-2.6342,-2.6492,-2.6459,-2.6462,-2.6461,-2.6471,-2.6543,-2.6579,-2.6519,-2.6519,-2.6531,-2.6617,-2.6644,-2.6653,-2.6764,-2.6683,-2.6689,-2.6693,-2.6696,-2.695,-2.6952,0,0,0,0,0,0,-2.6318,-2.6337,-2.6489,-2.6495,-2.6391,-2.6466,-2.6478,-2.6515,-2.6578,-2.6585,-2.6533,-2.653,-2.6634,-2.6645,-2.6657,-2.6766,-2.669,-2.6697,-2.67,-2.6947,-2.695,-2.6953,0,0,0,0,0,0,-2.6313,-2.6331,-2.6484,-2.6416,-2.6435,-2.6472,-2.6514,-2.6518,-2.6546,-2.6588,-2.6595,-2.6554,-2.6633,-2.6647,-2.6729,-2.677,-2.67,-2.6706,-2.6944,-2.6948,-2.6952,-2.6985,0,0,0,0,0,0,-2.6307,-2.633,-2.6364,-2.6417,-2.6439,-2.6554,-2.6516,-2.6522,-2.6557,-2.6554,-2.661,-2.6617,-2.6632,-2.6719,-2.6735,-2.6777,-2.6711,-2.694,-2.6946,-2.6951,-2.698,-2.6989,-2.6997,0,0,0,0,0,-2.63,-2.6369,-2.6365,-2.6384,-2.6482,-2.6556,-2.6569,-2.6585,-2.656,-2.6595,-2.6623,-2.6615,-2.6763,-2.6727,-2.6746,-2.679,-2.6938,-2.6944,-2.695,-2.6976,-2.6988,-2.6997,0,0,0,0,0,0,-2.632,-2.6376,-2.6373,-2.6461,-2.6504,-2.6554,-2.6599,-2.6596,-2.6647,-2.6643,-2.666,-2.6673,-2.6755,-2.6781,-2.674,-2.6881,-2.6847,-2.6857,-2.686,-2.6872,-2.688,-2.6872,-2.6716,0,0,0,0,0,-2.6335,-2.639,-2.6436,-2.6509,-2.6531,-2.6561,-2.6594,-2.6603,-2.6648,-2.6666,-2.67,-2.6745,-2.6801,-2.6838,-2.6892,-2.6984,-2.6996,-2.7024,-2.7033,-2.704,-2.7048,-2.7099,-2.7112,-2.6974,-2.6974,-2.6974,0,0,-2.6366,-2.6403,-2.6437,-2.6514,-2.6549,-2.6606,-2.6577,-2.6638,-2.6681,-2.6676,-2.6754,-2.6781,-2.6832,-2.6919,-2.6959,-2.6943,-2.7089,-2.7048,-2.7053,-2.7058,-2.7107,-2.712,-2.7131,-2.6978,-2.6977,-2.6977,0,0,-2.6451,-2.6485,-2.655,-2.6585,-2.6637,-2.6657,-2.6672,-2.6724,-2.6741,-2.682,-2.6817,-2.6869,-2.6966,-2.7002,-2.7034,-2.7134,-2.7129,-2.7151,-2.7196,-2.7245,-2.7256,-2.7266,-2.7302,-2.7314,-2.716,-2.716,-2.716,0,-2.6483,-2.6569,-2.6584,-2.6646,-2.668,-2.6678,-2.6744,-2.6777,-2.6845,-2.6869,-2.6851,-2.6972,-2.7007,-2.7102,-2.7127,-2.7152,-2.7171,-2.7144,-2.7253,-2.7263,-2.7273,-2.7307,-2.732,-2.7162,-2.7162,-2.7161,-2.7161,0,-2.6605,-2.6665,-2.6711,-2.6776,-2.6816,-2.688,-2.6905,-2.6943,-2.6948,-2.697,-2.7051,-2.7092,-2.7155,-2.7179,-2.7184,-2.7275,-2.7264,-2.7249,-2.7216,-2.7288,-2.732,-2.7334,-2.7165,-2.7164,-2.7164,-2.7163,0,0,-2.6706,-2.6778,-2.6795,-2.6825,-2.6882,-2.6929,-2.6993,-2.7054,-2.7087,-2.7134,-2.7188,-2.7271,-2.7258,-2.7293,-2.7303,-2.7347,-2.7423,-2.7327,-2.7328,-2.7343,-2.7526,-2.7537,-2.7551,-2.7421,-2.7423,-2.7425,-2.7522,0,-2.6797,-2.691,-2.6926,-2.7026,-2.7081,-2.708,-2.7136,-2.7178,-2.72,-2.7251,-2.7276,-2.7334,-2.7312,-2.7334,-2.7377,-2.7405,-2.746,-2.7398,-2.7472,-2.7474,-2.7458,-2.7568,-2.7579,-2.7668,-2.7535,-2.7537,-2.7539,0,-2.6918,-2.6968,-2.7073,-2.7124,-2.7148,-2.7197,-2.7255,-2.7303,-2.7351,-2.7364,-2.7404,-2.7409,-2.7476,-2.744,-2.7533,-2.7491,-2.7522,-2.7541,-2.7544,-2.7551,-2.751,-2.7578,-2.7697,-2.771,-2.7559,-2.7557,-2.7556,0,-2.6981,-2.7074,-2.7149,-2.7175,-2.7235,-2.7271,-2.7298,-2.7343,-2.7379,-2.7429,-2.7453,-2.7511,-2.7542,-2.7587,-2.7608,-2.758,-2.77,-2.7665,-2.7713,-2.7712,-2.7737,-2.7735,-2.7863,-2.7758,-2.7758,-2.7758,-2.7758,0,-2.708,-2.7145,-2.7178,-2.7224,-2.7297,-2.7315,-2.7386,-2.7412,-2.7453,-2.7504,-2.7507,-2.7556,-2.758,-2.7633,-2.765,-2.7724,-2.7739,-2.7751,-2.7755,-2.7751,-2.7749,-2.7771,-2.7765,-2.7762,-2.7761,-2.776,-2.7759,0,-2.7162,-2.7187,-2.7269,-2.732,-2.7334,-2.7385,-2.7429,-2.7474,-2.7496,-2.7562,-2.7578,-2.7613,-2.7675,-2.77,-2.7777,-2.7788,-2.7874,-2.7873,-2.7857,-2.7858,-2.7904,-2.7899,-2.805,-2.807,-2.7952,-2.7954,-2.7954,0,-2.7224,-2.7274,-2.733,-2.7364,-2.7392,-2.7448,-2.7484,-2.7504,-2.7542,-2.7601,-2.7639,-2.7701,-2.7751,-2.785,-2.7883,-2.7942,-2.7942,-2.799,-2.7951,-2.7945,-2.7942,-2.7939,-2.7944,-2.7998,-2.7999,-2.8,-2.8001,0,-2.7331,-2.7341,-2.7393,-2.745,-2.7493,-2.7539,-2.7583,-2.7612,-2.7639,-2.7681,-2.7744,-2.7783,-2.7861,-2.7923,-2.7983,-2.8011,-2.8011,-2.8013,-2.8027,-2.8023,-2.8012,-2.8018,-2.7877,-2.8009,-2.8008,-2.8008,-2.8007,-2.8007,-2.7405,-2.7449,-2.7495,-2.7553,-2.7588,-2.763,-2.7675,-2.7703,-2.7756,-2.782,-2.7829,-2.7897,-2.7944,-2.8025,-2.8056,-2.8109,-2.8097,-2.8117,-2.8122,-2.8127,-2.813,-2.8004,-2.8121,-2.812,-2.812,-2.812,-2.812,0,-2.7512,-2.7541,-2.7594,-2.7657,-2.7702,-2.7697,-2.7747,-2.7786,-2.7845,-2.7889,-2.7938,-2.8011,-2.8071,-2.8108,-2.8169,-2.8205,-2.8206,-2.822,-2.8217,-2.8224,-2.8138,-2.8119,-2.8218,-2.8218,-2.8218,-2.8218,-2.8218,-2.8218,-2.7573,-2.7647,-2.7662,-2.7754,-2.7784,-2.7849,-2.7878,-2.7917,-2.7952,-2.8033,-2.8082,-2.8106,-2.8148,-2.8211,-2.8266,-2.8276,-2.8298,-2.8312,-2.8321,-2.824,-2.823,-2.822,-2.8203,-2.8317,-2.8317,-2.8403,-2.8403,-2.8404]},{"header":{"parameterUnit":"m.s-1","parameterCategory":1,"la1":30.2991,"la2":30.254,"lo1":-89.0895,"lo2":-89.0444,"dy":0.0017,"dx":0.0017,"nx":28,"ny":28,"refTime":"2025-06-21T21:00:00:Z","depth":0,"parameterNumber":3,"parameterNumberName":"V-component_of_WINDS"},"data":[0,0,0,0,0,0,0,0,0,0,0,0,0,0,0,0,0,0,0,0,0,0,0,0,0,0,0,0,0,0,0,0,0,0,0,0,0,0,0,0,0,0,0,0,0,0,0,0,0,0,0,0,0,0,0,0,0,0,1.685,1.6849,0,1.6741,1.674,1.6738,1.6661,1.6661,1.666,1.666,1.6541,1.6538,1.6536,0,0,0,0,0,0,0,0,0,0,0,0,0,1.6985,1.6983,1.685,1.6849,1.6847,1.6741,1.674,1.6738,1.6662,1.6661,1.666,1.6659,1.6542,1.6539,1.6536,0,0,0,0,0,0,0,0,0,0,0,0,0,1.6906,1.6983,1.685,1.6797,1.6791,1.6741,1.674,1.6738,1.6662,1.6661,1.666,1.6659,1.6543,1.6539,1.6535,1.6529,0,0,1.6523,1.6521,0,0,0,0,0,0,0,0,1.6911,1.6901,1.6806,1.68,1.6793,1.6714,1.6744,1.6667,1.6662,1.671,1.666,1.6659,1.6599,1.659,1.6571,1.6523,1.6518,1.6523,1.652,1.6519,1.6518,0,0,0,0,0,0,0,1.6916,1.6906,1.6807,1.6804,1.6797,1.6776,1.6763,1.6729,1.6661,1.6706,1.67,1.6689,1.6595,1.6575,1.6568,1.6516,1.6523,1.6519,1.6517,1.6515,1.6455,1.6456,0,0,0,0,0,0,1.6931,1.6911,1.681,1.6803,1.6851,1.6774,1.676,1.674,1.6661,1.6648,1.669,1.6686,1.6583,1.6573,1.6564,1.655,1.6519,1.6515,1.6513,1.6455,1.6456,1.6456,0,0,0,0,0,0,1.6935,1.6923,1.6814,1.6855,1.684,1.6773,1.6751,1.6739,1.6719,1.6649,1.6635,1.6683,1.6581,1.6569,1.6538,1.6545,1.6513,1.651,1.6454,1.6455,1.6456,1.6523,0,0,0,0,0,0,1.6939,1.6925,1.6923,1.6856,1.6838,1.6793,1.6751,1.6737,1.6713,1.6707,1.6638,1.6626,1.658,1.6544,1.6534,1.6539,1.6507,1.6453,1.6454,1.6456,1.652,1.6526,1.6532,0,0,0,0,0,1.6944,1.6945,1.6923,1.6912,1.6835,1.6794,1.6783,1.6732,1.6714,1.6711,1.6665,1.6628,1.6546,1.6542,1.653,1.6533,1.6452,1.6454,1.6456,1.6517,1.6525,1.6532,0,0,0,0,0,0,1.7012,1.6935,1.691,1.689,1.685,1.6781,1.6775,1.6742,1.6704,1.6699,1.6635,1.662,1.6595,1.6561,1.6558,1.6522,1.6494,1.6494,1.6545,1.6552,1.6558,1.6566,1.6503,0,0,0,0,0,1.7025,1.7,1.6933,1.6922,1.6903,1.6843,1.6823,1.6788,1.6741,1.6723,1.6675,1.663,1.6594,1.6571,1.6534,1.6515,1.6498,1.6511,1.6517,1.6522,1.6522,1.6508,1.6513,1.6462,1.6462,1.6462,0,0,1.7051,1.7006,1.6994,1.6935,1.6899,1.6872,1.6829,1.6802,1.6781,1.6718,1.6686,1.665,1.6595,1.657,1.6556,1.654,1.6533,1.6525,1.6529,1.6526,1.651,1.6515,1.652,1.6463,1.6463,1.6463,0,0,1.7085,1.7049,1.7035,1.7001,1.6948,1.6908,1.6905,1.6841,1.6815,1.6783,1.6735,1.6708,1.6647,1.661,1.6583,1.6604,1.6567,1.6593,1.6624,1.6611,1.6615,1.6618,1.6624,1.6627,1.6593,1.6594,1.6594,0,1.7123,1.7083,1.7032,1.7009,1.6983,1.6928,1.6912,1.688,1.6817,1.68,1.6784,1.6707,1.6666,1.663,1.6636,1.6616,1.6609,1.66,1.6619,1.6622,1.6624,1.6628,1.6631,1.6597,1.6597,1.6596,1.6596,0,1.7132,1.7105,1.71,1.7043,1.7017,1.6998,1.6942,1.6921,1.6888,1.685,1.6816,1.6766,1.6717,1.6706,1.6673,1.6666,1.6658,1.6632,1.6602,1.6633,1.6636,1.6638,1.6602,1.6601,1.66,1.6599,0,0,1.7204,1.712,1.7119,1.7092,1.703,1.7007,1.6985,1.694,1.6923,1.6881,1.6859,1.681,1.6785,1.6754,1.6716,1.6705,1.6723,1.6679,1.6677,1.6688,1.6711,1.6731,1.6734,1.6699,1.6699,1.67,1.6715,0,1.7227,1.7187,1.714,1.7114,1.7088,1.7035,1.7015,1.6973,1.6937,1.6907,1.6865,1.6831,1.6801,1.6783,1.677,1.6724,1.6726,1.6722,1.6676,1.6675,1.669,1.6736,1.6756,1.6773,1.6716,1.6716,1.6716,0,1.7248,1.7212,1.7185,1.7125,1.7112,1.7095,1.705,1.7023,1.6974,1.6948,1.6915,1.6875,1.6846,1.6822,1.678,1.6778,1.6756,1.6731,1.673,1.6723,1.6697,1.6728,1.6777,1.678,1.6718,1.6718,1.6718,0,1.7303,1.7246,1.7222,1.7201,1.7131,1.712,1.709,1.7041,1.7017,1.6976,1.696,1.6916,1.6891,1.6857,1.6805,1.6793,1.6769,1.674,1.6744,1.6746,1.674,1.6741,1.6786,1.6729,1.6729,1.6729,1.6729,0,1.7332,1.7317,1.7246,1.7231,1.7212,1.7158,1.7139,1.7104,1.7061,1.7036,1.6987,1.6965,1.6899,1.6868,1.6827,1.6798,1.6787,1.6764,1.6753,1.6767,1.677,1.6751,1.6748,1.673,1.673,1.6729,1.6729,0,1.7389,1.7341,1.7311,1.7248,1.7232,1.722,1.7165,1.7147,1.7108,1.7078,1.7068,1.7006,1.6967,1.6913,1.6856,1.6829,1.6805,1.6788,1.6822,1.6815,1.6822,1.6822,1.6855,1.6856,1.68,1.6801,1.6802,0,1.741,1.7398,1.7334,1.7316,1.7288,1.7258,1.7234,1.718,1.7156,1.71,1.7089,1.7047,1.701,1.695,1.6898,1.6855,1.6836,1.685,1.6829,1.6844,1.6834,1.6835,1.6833,1.6855,1.6856,1.6857,1.6857,0,1.7453,1.743,1.7399,1.7359,1.7332,1.7297,1.7259,1.7246,1.7183,1.7159,1.712,1.7092,1.7036,1.6994,1.6944,1.6909,1.6872,1.6865,1.6863,1.6877,1.6897,1.6885,1.6835,1.6864,1.6863,1.6863,1.6862,1.6862,1.7492,1.7478,1.7431,1.7397,1.7364,1.733,1.7311,1.727,1.7238,1.7189,1.7159,1.7121,1.7071,1.7001,1.6969,1.6937,1.6921,1.6919,1.6918,1.6918,1.6923,1.6904,1.6927,1.6927,1.6927,1.6926,1.6926,0,1.7531,1.7499,1.7468,1.7419,1.7391,1.7362,1.7319,1.7297,1.7266,1.7224,1.719,1.7144,1.7104,1.705,1.7004,1.6989,1.6971,1.6979,1.6978,1.6971,1.694,1.6945,1.6994,1.6994,1.6994,1.6994,1.6994,1.6994,1.7548,1.7523,1.7495,1.7452,1.7419,1.7384,1.7362,1.7329,1.7296,1.7248,1.7215,1.7181,1.7134,1.7085,1.7046,1.703,1.7015,1.7028,1.7008,1.6979,1.6973,1.6967,1.6972,1.7026,1.7026,1.7041,1.7042,1.7042]}]]